User: anonymous   Login
Location: Unspecified
(0.0000°N, 0.0000°E)
Time: 11:39:25
(UTC+00:00)
Language:

COSMOS 2517 (GEO-IK) - Orbit

View from above orbital plane
View from above orbital plane
View from above satellite
View from above satellite

Ground track
Ground track

The orbit data is extracted from the following two-line orbital elements,

1 41579U 16034A   18290.18333452 -.00000044  00000-0  33961-6 0  9996
2 41579  99.2664 299.9087 0000948  93.4178 266.7086 13.85916372119787
Epoch (UTC): 17 October 2018 04:24:00
Eccentricity: 0.0000948
inclination: 99.2664°
perigee height: 942 km
apogee height: 943 km
right ascension of ascending node: 299.9087°
argument of perigee: 93.4178°
revolutions per day: 13.85916372
mean anomaly at epoch: 266.7086°
orbit number at epoch: 11978

The dashed part of the orbit path shows where the satellite is in the earth's shadow,  

DLR